Bastrop, LA

1:58 AM CDT on August 24, 2016 (GMT -0500)
Bastrop

Weather History for KBQP - November, 2012

Change the Weather History Date:

Friday, November 9, 2012

  Actual Average (KMLU) Record (KMLU)
Temperature  
Mean Temperature - 59 °F  
Max Temperature - 71 °F 87 °F (1934)
Min Temperature - 46 °F 25 °F (1961)
Degree Days  
Heating Degree Days 7  
Month to date heating degree days 58  
Since 1 July heating degree days 148  
Cooling Degree Days 1  
Month to date cooling degree days 11  
Year to date cooling degree days 2495  
Moisture  
Dew Point -    
Average Humidity    
Maximum Humidity    
Minimum Humidity    
Precipitation  
Precipitation 0.00 in 0.15 in 2.20 in (1952)
Month to date precipitation 1.33  
Year to date precipitation 45.22  
Snow  
Snow 0.00 in - - ()
Month to date snowfall  
Since 1 July snowfall  
Since 1 September snowfall  
Snow Depth -    
Sea Level Pressure  
Sea Level Pressure 30.17 in    
Wind  
Wind Speed 1 mph (SSE)    
Max Wind Speed 8 mph    
Max Gust Speed -    
Visibility 10 miles    
Events      
T = Trace of Precipitation, MM = Missing Value Source: NWS Daily Summary

Daily Weather History Graph

Daily Weather History Graph

Search for Another Location

Airport or City:

Trip Planner

Search our weather history database for the weather conditions in past years. The results will help you decide how hot, cold, wet, or windy it might be!

Date:

Astronomy

Nov. 09, 2012 Rise Set
Actual Time 6:32 AM CST 5:09 PM CST
Civil Twilight 6:06 AM CST 5:35 PM CST
Nautical Twilight 5:37 AM CST 6:05 PM CST
Astronomical Twilight 5:08 AM CST 6:34 PM CST
Moon 1:46 AM CST (11/9) 2:10 PM CST (11/9)
Length of Visible Light 11h 28m
Length of Day
10h 37m
Waning Crescent, 23% of the Moon is Illuminated
Nov 9
Waning Crescent
Nov 13
New
Nov 20
First Quarter
Nov 28
Full
Dec 6
Last Quarter

Hourly Weather History & Observations

Time (CST) Temp. Dew Point Humidity Pressure Visibility Wind Dir Wind Speed Gust Speed Precip Events Conditions
12:15 AM - - N/A% 30.18 in 10.0 mi Calm Calm - N/A   Clear
12:35 AM - - N/A% 30.17 in 10.0 mi Calm Calm - N/A   Clear
12:55 AM - - N/A% 30.17 in 10.0 mi Calm Calm - N/A   Clear
1:15 AM - - N/A% 30.17 in 10.0 mi Calm Calm - N/A   Clear
1:35 AM - - N/A% 30.17 in 10.0 mi Calm Calm - N/A   Clear
1:55 AM - - N/A% 30.17 in 10.0 mi Calm Calm - N/A   Clear
2:15 AM - - N/A% 30.17 in 10.0 mi Calm Calm - N/A   Clear
2:35 AM - - N/A% 30.17 in 10.0 mi Calm Calm - N/A   Clear
2:55 AM - - N/A% 30.17 in 10.0 mi Calm Calm - N/A   Clear
3:15 AM - - N/A% 30.17 in 10.0 mi Calm Calm - N/A   Clear
3:35 AM - - N/A% 30.17 in 10.0 mi Calm Calm - N/A   Clear
3:55 AM - - N/A% 30.17 in 10.0 mi Calm Calm - N/A   Clear
4:15 AM - - N/A% 30.18 in 10.0 mi Calm Calm - N/A   Clear
4:35 AM - - N/A% 30.18 in 10.0 mi Calm Calm - N/A   Clear
4:55 AM - - N/A% 30.19 in 10.0 mi Calm Calm - N/A   Clear
5:15 AM - - N/A% 30.19 in 10.0 mi Calm Calm - N/A   Clear
5:35 AM - - N/A% 30.19 in 10.0 mi Calm Calm - N/A   Clear
5:55 AM - - N/A% 30.19 in 10.0 mi Calm Calm - N/A   Clear
6:15 AM - - N/A% 30.20 in 10.0 mi Calm Calm - N/A   Clear
6:35 AM - - N/A% 30.22 in 10.0 mi Calm Calm - N/A   Clear
6:55 AM - - N/A% 30.22 in 10.0 mi Calm Calm - N/A   Clear
7:35 AM - - N/A% 30.24 in 10.0 mi Calm Calm - N/A   Clear
7:55 AM - - N/A% 30.24 in 10.0 mi Calm Calm - N/A   Clear
8:15 AM - - N/A% 30.24 in 10.0 mi Calm Calm - N/A   Clear
8:35 AM - - N/A% 30.25 in 10.0 mi SSE 3.5 mph - N/A   Clear
8:55 AM - - N/A% 30.24 in 10.0 mi South 5.8 mph - N/A   Clear
9:15 AM - - N/A% 30.25 in 10.0 mi South 6.9 mph - N/A   Clear
9:35 AM - - N/A% 30.25 in 10.0 mi South 5.8 mph - N/A   Clear
9:55 AM - - N/A% 30.25 in 10.0 mi South 6.9 mph - N/A   Clear
10:15 AM - - N/A% 30.24 in 10.0 mi South 6.9 mph - N/A   Clear
10:35 AM - - N/A% 30.24 in 10.0 mi SSE 5.8 mph - N/A   Clear
10:55 AM - - N/A% 30.23 in 10.0 mi SSE 4.6 mph - N/A   Clear
11:15 AM - - N/A% 30.22 in 10.0 mi South 5.8 mph - N/A   Clear
11:35 AM - - N/A% 30.21 in 10.0 mi SSE 3.5 mph - N/A   Clear
11:55 AM - - N/A% 30.20 in 10.0 mi SSE 5.8 mph - N/A   Clear
12:15 PM - - N/A% 30.19 in 10.0 mi Calm Calm - N/A   Clear
12:35 PM - - N/A% 30.17 in 10.0 mi South 4.6 mph - N/A   Clear
12:55 PM - - N/A% 30.16 in 10.0 mi SE 6.9 mph - N/A   Clear
1:15 PM - - N/A% 30.15 in 10.0 mi SSE 4.6 mph - N/A   Clear
1:35 PM - - N/A% 30.15 in 10.0 mi SE 4.6 mph - N/A   Clear
1:55 PM - - N/A% 30.14 in 10.0 mi SSE 6.9 mph - N/A   Clear
2:15 PM - - N/A% 30.14 in 10.0 mi SE 4.6 mph - N/A   Clear
2:35 PM - - N/A% 30.14 in 10.0 mi South 4.6 mph - N/A   Clear
2:55 PM - - N/A% 30.13 in 10.0 mi Calm Calm - N/A   Clear
3:15 PM - - N/A% 30.13 in 10.0 mi ESE 3.5 mph - N/A   Clear
3:35 PM - - N/A% 30.13 in 10.0 mi SSE 4.6 mph - N/A   Clear
3:55 PM - - N/A% 30.13 in 10.0 mi Calm Calm - N/A   Clear
4:15 PM - - N/A% 30.12 in 10.0 mi Calm Calm - N/A   Clear
4:35 PM - - N/A% 30.12 in 10.0 mi Calm Calm - N/A   Clear
4:55 PM - - N/A% 30.12 in 10.0 mi Calm Calm - N/A   Clear
5:15 PM - - N/A% 30.12 in 10.0 mi Calm Calm - N/A   Clear
5:35 PM - - N/A% 30.13 in 10.0 mi Calm Calm - N/A   Clear
5:55 PM - - N/A% 30.12 in 10.0 mi Calm Calm - N/A   Clear
6:15 PM - - N/A% 30.13 in 10.0 mi Calm Calm - N/A   Clear
6:35 PM - - N/A% 30.13 in 10.0 mi Calm Calm - N/A   Clear
6:55 PM - - N/A% 30.13 in 10.0 mi Calm Calm - N/A   Clear
7:15 PM - - N/A% 30.13 in 10.0 mi Calm Calm - N/A   Clear
7:35 PM - - N/A% 30.14 in 10.0 mi Calm Calm - N/A   Clear
7:55 PM - - N/A% 30.14 in 10.0 mi Calm Calm - N/A   Clear
8:15 PM - - N/A% 30.15 in 10.0 mi Calm Calm - N/A   Clear
8:35 PM - - N/A% 30.14 in 10.0 mi Calm Calm - N/A   Clear
8:55 PM - - N/A% 30.15 in 10.0 mi Calm Calm - N/A   Clear
9:15 PM - - N/A% 30.15 in 10.0 mi Calm Calm - N/A   Clear
9:35 PM - - N/A% 30.15 in 10.0 mi SSE 3.5 mph - N/A   Clear
9:55 PM - - N/A% 30.15 in 10.0 mi SSE 6.9 mph - N/A   Clear
10:15 PM - - N/A% 30.15 in 10.0 mi SSE 8.1 mph - N/A   Clear
10:35 PM - - N/A% 30.15 in 10.0 mi SSE 6.9 mph - N/A   Clear
10:55 PM - - N/A% 30.16 in 10.0 mi South 6.9 mph - N/A   Clear
11:15 PM - - N/A% 30.16 in 10.0 mi South 5.8 mph - N/A   Clear
11:35 PM - - N/A% 30.16 in 10.0 mi South 4.6 mph - N/A   Clear
11:55 PM - - N/A% 30.16 in 10.0 mi South 4.6 mph - N/A   Clear